Kuchera_Ratio
0.0 0.0 0.0 0.0 0.0 0.0 0.0 0.0 0.0 0.0 0.0 0.0 0.0 0.0 0.0 0.0 0.0 0.0 0.0 0.0 0.0 0.0 0.0 0.0 0.0 0.0 0.0 0.0 0.0 0.0 0.0 0.0 0.0 0.0 0.0 0.0 0.0 0.0 0.0 0.0 0.0 0.0 0.0 0.0 0.0 0.0 0.0 0.0 0.0 0.0 0.0 0.0 0.0 0.0 0.0 0.0 0.0 0.0 0.0 2.5 0.9 0.0 0.0 0.0 0.0 0.0 0.0 0.0 0.0 0.0 0.0 0.0 0.0 0.0 0.0 0.0 0.0 0.0 0.0 0.0 0.0 0.0 0.0 0.0 0.0 0.0 0.0 0.0
0.0 0.0 0.0 0.0 0.0 0.0 0.0 0.0 0.0 0.0 0.0 0.0 0.0 0.0 0.0 0.0 0.0 0.0 0.0 0.0 0.0 0.0 0.0 0.0 0.0 0.0 0.0 0.0 0.0 0.0 0.0 0.0 0.0 0.0 0.0 0.0 0.0 0.0 0.0 0.0 0.0 0.0 0.0 0.0 0.0 0.0 0.0 0.0 0.0 0.0 0.0 0.0 0.0 0.0 0.0 0.0 0.0 0.0 3.4 2.7 0.0 0.0 0.0 0.0 0.0 0.0 0.0 0.0 0.0 0.0 0.0 0.0 0.0 0.0 0.0 0.0 0.0 0.0 0.0 0.0 0.0 0.0 0.0 0.0 0.0 0.0 0.0 0.0
0.0 0.0 0.0 0.0 0.0 0.0 0.0 0.0 0.0 0.0 0.0 0.0 0.0 0.0 0.0 0.0 0.0 0.0 0.0 0.0 0.0 0.0 0.0 0.0 0.0 0.0 0.0 0.0 0.0 0.0 0.0 0.0 0.0 0.0 0.0 0.0 0.0 0.0 0.0 0.0 0.0 0.0 0.0 0.0 0.0 0.0 0.0 0.0 0.0 0.0 0.0 0.0 0.0 0.0 0.0 0.0 0.0 0.0 0.0 2.4 0.0 0.0 0.0 0.0 0.0 0.0 0.0 0.0 0.0 0.0 0.0 0.0 0.0 0.0 0.0 0.0 0.0 0.0 0.0 0.0 0.0 0.0 0.0 0.0 0.0 0.0 0.0 0.0
0.0 0.0 0.0 0.0 0.0 0.0 0.0 0.0 0.0 0.0 0.0 0.0 0.0 0.0 0.0 0.0 0.0 0.0 0.0 0.0 0.0 0.0 0.0 0.0 0.0 0.0 0.0 0.0 0.0 0.0 0.0 0.0 0.0 0.0 0.0 0.0 0.0 0.0 0.0 0.0 0.0 0.0 0.0 0.0 0.0 0.0 0.0 0.0 0.0 0.0 0.0 0.0 0.0 0.0 0.0 0.0 0.0 0.0 0.0 0.0 0.0 0.0 0.0 0.0 0.0 0.0 0.0 0.0 0.0 0.0 0.0 0.0 0.0 0.0 0.0 0.0 0.0 0.0 0.0 0.0 0.0 0.0 0.0 0.0 0.0 0.0 0.0 0.0
0.0 0.0 0.0 0.0 0.0 0.0 0.0 0.0 0.0 0.0 0.0 0.0 0.0 0.0 0.0 0.0 0.0 0.0 0.0 0.0 0.0 0.0 0.0 0.0 0.0 0.0 0.0 0.0 0.0 0.0 0.0 0.0 0.0 0.0 0.0 0.0 0.0 0.0 0.0 0.0 0.0 0.0 0.0 0.0 0.0 0.0 0.0 0.0 0.0 0.0 0.0 0.0 0.0 0.0 0.0 0.0 0.0 0.0 0.0 0.0 0.0 0.0 0.0 0.0 0.0 0.0 0.0 0.0 0.0 0.0 0.0 0.0 0.0 0.0 0.0 0.0 0.0 0.0 0.0 0.0 0.0 0.0 0.0 0.0 0.0 0.0 0.0 0.0
0.0 0.0 0.0 0.0 0.0 0.0 0.0 0.0 0.0 0.0 0.0 0.0 0.0 0.0 0.0 0.0 0.0 0.0 0.0 0.0 0.0 0.0 0.0 0.0 0.0 0.0 0.0 0.0 0.0 0.0 0.0 3.6 0.0 0.0 0.0 0.0 0.0 0.0 0.0 0.0 0.0 0.0 0.0 0.0 0.0 0.0 0.0 0.0 0.0 0.0 0.0 0.0 0.0 0.0 0.0 0.0 0.0 0.0 0.0 0.0 0.0 0.0 0.0 0.0 0.0 0.0 0.0 0.0 0.0 0.0 0.0 0.0 0.0 0.0 0.0 0.0 0.0 0.0 0.0 0.0 0.0 0.0 0.0 0.0 0.0 0.0 0.0 0.0
0.0 0.0 0.0 0.0 0.0 0.0 0.0 0.0 0.0 0.0 0.0 0.0 0.0 0.0 0.0 0.0 0.0 0.0 0.0 0.0 0.0 0.0 0.0 0.0 0.0 0.0 0.0 0.0 0.0 0.0 0.0 0.0 0.0 0.0 0.0 0.0 0.0 0.0 0.0 0.0 0.0 0.0 0.0 0.0 0.0 0.0 0.0 0.0 0.0 0.0 0.0 0.0 0.0 0.0 0.0 0.0 0.0 0.0 0.0 0.0 0.0 0.0 0.0 0.0 0.0 0.0 0.0 0.0 0.0 0.0 0.0 0.0 0.0 0.0 0.0 0.0 0.0 0.0 0.0 0.0 0.0 0.0 0.0 0.0 0.0 0.0 0.0 0.0
0.0 0.0 0.0 0.0 0.0 0.0 0.0 0.0 0.0 0.0 0.0 0.0 0.0 0.0 0.0 0.0 0.0 0.0 0.0 0.0 0.0 0.0 0.0 0.0 0.0 0.0 0.0 0.0 0.0 0.0 0.0 0.0 0.0 0.0 0.0 0.0 0.0 0.0 0.0 0.0 0.0 0.0 0.0 0.0 0.0 0.0 0.0 0.0 0.0 0.0 0.0 0.0 0.0 0.0 0.0 0.0 0.0 0.0 0.0 0.0 0.0 0.0 0.0 0.0 0.0 0.0 0.0 0.0 0.0 0.0 0.0 0.0 0.0 0.0 0.0 0.0 0.0 0.0 0.0 0.0 0.0 0.0 0.0 0.0 0.0 0.0 0.0 0.0
0.0 0.0 0.0 0.0 0.0 0.0 0.0 0.0 0.0 0.0 0.0 0.0 0.0 0.0 0.0 0.0 0.0 0.0 0.0 0.0 0.0 0.0 0.0 0.0 0.0 0.0 0.0 0.0 0.0 0.0 0.0 0.0 0.0 0.0 0.0 0.0 0.0 0.0 0.0 0.0 0.0 0.0 0.0 0.0 0.0 0.0 0.0 0.0 0.0 0.0 0.0 0.0 0.0 0.0 0.0 0.0 0.1 0.0 0.0 0.0 0.0 0.0 0.0 0.0 0.0 0.0 0.0 0.0 0.0 0.0 0.0 0.0 0.0 0.0 0.0 0.0 0.0 0.0 0.0 0.0 0.0 0.0 0.0 0.0 0.0 0.0 0.0 0.0
0.0 0.0 0.0 0.0 0.0 0.0 0.0 0.0 0.0 0.0 0.0 0.0 0.0 0.0 0.0 0.0 0.0 0.0 0.0 0.0 0.0 0.0 0.0 0.0 0.0 0.0 0.0 0.0 0.0 1.5 0.0 0.0 0.0 0.0 0.0 0.0 0.0 0.0 0.0 0.0 0.0 0.0 0.0 0.0 0.0 0.0 0.0 0.0 0.0 0.0 0.0 0.0 0.0 0.0 0.0 0.0 0.0 0.0 0.0 0.0 0.0 0.0 0.0 0.0 0.0 0.0 0.0 0.0 0.0 0.0 0.0 0.0 0.0 0.0 0.0 0.0 0.0 0.0 0.0 0.0 0.0 0.0 0.0 0.0 0.0 0.0 0.0 0.0
0.0 0.0 0.0 0.0 0.0 0.0 0.0 0.0 0.0 0.0 0.0 0.0 0.0 0.0 0.0 0.0 0.0 0.0 0.0 0.0 0.0 0.0 0.0 0.0 0.0 0.0 0.0 0.0 0.0 0.0 0.0 0.0 0.0 0.0 0.0 0.0 0.0 0.0 0.0 0.0 0.0 0.0 0.0 0.0 0.0 0.0 0.0 0.0 0.0 0.0 0.0 0.0 0.0 0.0 0.0 0.0 0.0 0.0 0.0 0.0 0.0 0.0 0.0 0.0 0.0 0.0 0.0 0.0 0.0 0.0 0.0 0.0 0.0 0.0 0.0 0.0 0.0 0.0 0.0 0.0 0.0 0.0 0.0 0.0 0.0 0.0 0.0 0.0
0.0 0.0 0.0 0.0 0.0 0.0 0.0 0.0 0.0 0.0 0.0 0.0 0.0 0.0 0.0 0.0 0.0 0.0 0.0 0.0 0.0 0.0 0.0 0.0 0.0 0.0 0.0 0.0 0.0 0.0 0.0 0.0 0.0 0.0 0.0 0.0 0.0 0.0 0.0 0.0 0.0 0.0 0.0 0.0 0.0 0.0 0.0 0.0 0.0 0.0 0.0 0.0 0.0 0.0 0.0 0.0 0.0 0.0 0.0 0.0 0.0 0.0 0.0 0.0 0.0 0.0 0.0 0.0 0.0 0.0 0.0 0.0 0.0 0.0 0.0 0.0 0.0 0.0 0.0 0.0 0.0 0.0 0.0 0.0 0.0 0.0 0.0 0.0
0.0 0.0 0.0 0.0 0.0 0.0 0.0 0.0 0.0 0.0 0.0 0.0 0.0 0.0 0.0 0.0 0.0 0.0 0.0 0.0 0.0 0.0 0.0 0.0 0.0 0.0 0.0 0.0 0.0 0.0 0.0 0.0 0.0 0.0 0.0 0.0 0.0 0.0 0.0 0.0 0.0 0.0 0.0 0.0 0.0 0.0 0.0 0.0 0.0 0.0 0.0 0.0 0.0 0.0 0.0 0.0 0.0 0.0 0.0 0.0 0.0 0.0 0.0 0.0 0.0 0.0 0.0 0.0 0.0 0.0 2.2 2.3 0.0 0.0 0.0 0.0 0.0 0.0 0.0 0.0 0.0 0.0 0.0 0.0 0.0 0.0 0.0 0.0
0.0 0.0 0.0 0.0 0.0 0.0 0.0 0.0 0.0 0.0 0.0 0.0 0.0 0.0 0.0 0.0 0.0 0.0 0.0 0.0 0.0 0.0 0.0 0.0 0.0 0.0 0.0 0.0 0.0 0.0 0.0 0.0 0.0 0.0 0.0 0.0 0.0 0.0 0.0 0.0 0.0 0.0 0.0 0.0 0.0 0.0 0.0 0.0 0.0 0.0 0.0 0.0 0.0 0.0 0.0 0.0 0.0 0.0 0.0 0.0 4.6 7.6 8.1 0.0 0.0 0.0 0.0 0.0 0.0 0.0 1.8 0.0 0.0 0.0 0.0 0.0 0.0 0.0 0.0 0.0 0.0 0.0 0.0 0.0 0.0 0.0 0.0 0.0
0.0 0.0 0.0 0.0 0.0 0.0 0.0 0.0 0.0 0.0 0.0 0.0 0.0 0.0 0.0 0.0 0.0 0.0 0.0 0.0 0.0 0.0 0.0 0.0 0.0 0.0 0.0 0.0 0.0 0.0 0.0 0.0 0.0 0.0 0.0 0.0 0.0 0.0 0.0 0.0 0.0 0.0 0.0 0.0 0.0 0.0 0.0 0.0 0.0 0.0 0.0 0.0 0.0 0.0 0.0 2.9 3.1 4.2 2.6 11.0 10.5 9.4 7.8 0.0 0.0 0.0 0.0 0.0 0.0 0.0 3.5 0.0 0.0 0.0 0.0 0.0 0.0 0.0 0.0 0.0 0.0 0.0 0.0 0.0 0.0 0.0 0.0 0.0
0.0 0.0 0.0 0.0 0.0 0.0 0.0 0.0 0.0 0.0 0.0 0.0 0.0 0.0 0.0 0.0 0.0 0.0 0.0 0.0 0.0 0.0 0.0 0.0 0.0 0.0 0.0 0.0 0.0 0.0 0.0 0.0 0.0 0.0 0.0 0.0 0.0 0.0 0.0 0.0 0.0 0.0 0.0 0.0 0.0 0.0 0.0 0.0 0.0 0.0 0.0 0.0 0.0 0.0 6.7 5.9 8.2 9.3 6.3 10.9 8.4 9.8 7.4 1.8 0.0 0.0 0.0 0.0 0.0 0.0 3.3 0.0 0.0 0.0 0.0 0.0 0.0 0.0 0.0 0.0 0.0 0.0 0.0 0.0 0.0 0.0 0.0 0.0
0.0 0.0 0.0 0.0 0.0 0.0 0.0 0.0 0.0 0.0 0.0 0.0 0.0 0.0 0.0 0.0 0.0 0.0 0.0 0.0 0.0 0.0 0.0 0.0 0.0 0.0 0.0 0.0 0.0 0.0 0.0 0.0 0.0 0.0 0.0 0.0 0.0 0.0 0.0 0.0 0.0 0.0 0.0 0.0 0.0 0.0 0.0 0.0 0.0 0.0 0.0 0.0 2.0 3.6 6.6 12.5 11.9 11.1 10.5 10.3 10.2 6.8 5.9 9.1 0.0 0.0 0.0 0.0 0.0 0.0 0.0 0.0 0.0 0.0 0.0 0.0 0.0 0.0 0.0 0.0 0.0 0.0 0.0 0.0 0.0 0.0 0.0 0.0
0.0 0.0 0.0 0.0 0.0 0.0 0.0 0.0 0.0 0.0 0.0 0.0 0.0 0.0 0.0 0.0 0.0 0.0 0.0 0.0 0.0 0.0 0.0 0.0 0.0 0.0 0.0 0.0 0.0 0.0 0.0 0.0 0.0 0.0 0.0 0.0 0.0 0.0 0.0 0.0 0.0 0.0 0.0 0.0 0.0 0.0 0.0 0.0 0.0 2.1 2.6 2.3 1.3 7.4 10.7 12.3 10.9 11.4 10.9 11.9 8.3 6.9 5.1 4.8 4.9 0.1 0.0 0.0 0.0 0.0 0.0 0.0 0.0 0.0 0.0 0.0 0.0 0.0 0.0 0.0 0.0 0.0 0.0 0.0 0.0 0.0 0.0 0.0
0.0 0.0 0.0 0.0 0.0 0.0 0.0 0.0 0.0 0.0 0.0 0.0 0.0 0.0 0.0 0.0 0.0 0.0 0.0 0.0 0.0 0.0 0.0 0.0 0.0 3.8 0.1 0.0 0.0 0.0 0.0 0.0 0.0 0.0 0.0 0.0 0.0 0.0 0.0 0.0 0.0 0.0 0.0 0.0 0.0 0.0 0.0 0.0 0.0 2.4 7.1 6.3 3.9 2.4 4.5 2.3 2.1 4.4 3.9 5.8 7.8 8.8 5.4 6.9 0.9 0.0 0.0 0.0 0.0 0.0 0.0 0.0 0.0 0.0 0.0 0.0 0.0 0.0 0.0 0.0 0.0 0.0 0.0 0.0 0.0 0.0 0.0 0.0
0.0 0.0 0.0 0.0 0.0 0.0 0.0 0.0 0.0 0.0 0.0 0.0 0.0 0.0 0.0 0.0 0.0 0.0 0.0 0.0 0.0 0.0 0.0 0.0 0.0 0.0 0.0 0.0 0.0 0.0 0.0 0.0 0.0 0.0 0.0 0.0 0.0 0.0 0.0 0.0 0.0 0.0 0.0 0.0 0.0 0.0 0.0 3.3 5.8 4.7 2.0 0.0 0.0 0.0 0.0 0.0 0.0 0.0 1.5 5.0 5.3 5.4 3.7 0.4 0.0 0.0 0.0 0.0 0.0 0.0 0.0 0.0 0.0 0.0 0.0 0.0 0.0 0.0 0.0 0.0 0.0 0.0 0.0 0.0 0.0 0.0 0.0 0.0
0.0 0.0 0.0 0.0 0.0 0.0 0.0 0.0 0.0 0.0 0.0 0.0 0.0 0.0 0.0 0.0 3.4 3.1 0.0 0.0 0.0 0.0 0.0 0.0 0.0 0.0 0.0 0.0 0.0 0.0 0.0 0.0 0.0 0.0 0.0 0.0 0.0 0.0 0.0 0.0 0.0 0.0 0.2 0.0 0.0 0.0 0.0 4.3 2.5 0.0 0.0 0.0 0.0 0.0 0.0 0.0 0.0 0.3 1.1 3.6 5.2 4.8 6.3 0.0 0.0 0.0 0.0 0.0 0.0 0.0 0.0 0.0 0.0 0.0 0.0 0.0 0.0 0.0 0.0 0.0 0.0 0.0 0.0 0.0 0.0 0.0 0.0 0.0
0.0 0.0 0.0 0.0 0.0 0.0 0.0 0.0 0.0 0.0 0.0 0.0 0.0 0.0 0.0 0.0 0.0 0.0 0.0 0.0 0.0 0.0 0.0 0.0 0.0 0.0 0.0 0.0 0.0 0.0 0.0 0.0 0.0 0.0 0.0 0.0 0.0 0.0 0.0 0.0 0.0 0.0 0.0 0.0 0.0 2.4 4.8 5.6 0.0 0.0 0.0 0.0 0.0 0.0 0.0 0.0 0.2 0.0 3.8 4.4 7.0 5.9 2.0 0.0 0.0 0.0 0.0 0.0 0.8 0.0 0.4 0.0 0.0 0.0 0.0 0.0 0.0 0.0 0.0 0.0 0.0 0.0 0.0 0.0 0.0 0.0 0.0 0.0
0.0 0.0 0.0 0.0 0.0 0.0 0.0 0.0 0.0 0.0 0.0 0.0 0.0 0.0 0.0 0.0 0.0 0.0 0.0 0.0 0.0 0.0 0.0 0.0 0.0 0.0 0.0 0.0 0.0 0.0 0.0 0.0 0.0 0.0 0.0 0.0 0.0 0.0 0.0 0.0 0.0 1.8 0.0 0.0 1.6 4.8 7.6 2.9 0.0 0.0 0.0 0.0 0.0 0.0 0.0 0.1 0.3 3.9 5.3 10.3 9.7 2.7 5.6 9.8 2.6 0.0 0.0 0.0 1.4 0.0 0.8 0.0 0.0 0.0 0.0 0.0 0.0 0.0 0.0 0.0 0.0 0.0 0.0 0.0 0.0 0.0 0.0 0.0
0.0 0.0 0.0 0.0 0.0 0.0 0.0 0.0 0.0 0.0 0.0 0.0 0.0 0.0 0.0 0.0 0.0 0.0 0.0 3.1 2.1 0.0 0.0 0.0 0.0 0.0 0.0 0.0 0.0 0.0 0.0 0.0 0.0 0.0 0.0 0.0 0.0 0.0 0.0 0.0 0.9 1.2 3.4 1.4 0.8 3.7 3.3 0.0 0.0 0.0 0.0 0.0 0.0 0.0 1.9 5.2 6.9 3.1 2.4 4.2 5.4 4.3 3.8 3.9 2.1 0.0 0.0 0.0 0.0 0.0 3.6 3.1 0.0 0.0 0.0 0.0 0.0 0.0 0.0 0.0 0.0 0.0 0.0 0.0 0.0 0.0 0.0 0.0
0.0 0.0 0.0 0.0 0.0 0.0 0.0 0.0 0.0 0.0 0.0 0.0 0.0 0.0 0.0 0.0 0.0 0.0 0.0 0.0 0.0 1.3 0.0 0.0 0.0 0.0 0.0 0.0 0.0 0.0 0.0 0.0 0.0 0.0 0.0 0.0 0.0 0.0 0.0 0.0 0.0 6.3 5.3 4.1 4.3 6.4 5.1 0.0 0.0 0.0 0.3 0.0 1.8 3.9 2.3 3.1 7.2 6.8 2.0 0.8 0.1 0.0 0.5 0.0 0.0 0.1 7.0 8.8 2.6 2.4 12.5 11.0 8.6 6.2 2.0 0.0 0.0 0.0 0.0 0.0 0.0 0.0 0.0 0.0 0.0 0.0 0.0 0.0
0.0 0.0 0.0 0.0 0.0 0.0 0.0 0.0 0.0 0.0 0.0 0.0 0.0 0.0 0.0 0.0 0.0 0.0 0.0 9.4 8.1 0.0 0.0 0.0 0.0 0.0 0.0 0.0 0.0 0.0 0.0 0.0 0.0 0.0 0.0 0.0 0.0 0.0 0.0 1.4 0.0 6.3 3.6 4.8 5.5 4.8 2.4 0.0 0.0 1.5 2.6 3.4 3.9 5.1 2.0 1.7 8.6 11.4 8.5 0.3 0.0 0.0 0.0 0.1 1.9 2.9 12.6 12.9 5.9 0.6 13.1 15.0 8.4 2.2 0.0 0.0 0.0 0.0 0.0 0.0 0.0 0.0 0.0 0.0 0.0 0.0 0.0 0.0
0.0 0.0 0.0 0.0 0.0 0.0 0.0 0.0 0.0 0.0 0.0 0.0 0.0 0.0 0.0 0.0 0.0 0.0 0.0 9.0 9.2 0.0 0.0 0.0 0.0 0.0 0.0 0.0 0.0 0.0 8.8 3.4 0.0 0.0 0.0 0.0 0.0 0.0 0.0 4.7 0.0 0.0 0.0 0.0 5.7 10.4 1.6 2.3 1.8 2.0 3.0 4.8 6.4 8.1 2.6 0.5 6.0 8.9 0.4 1.2 0.4 1.6 3.8 3.9 3.6 4.4 7.3 4.3 4.6 2.7 4.9 13.3 12.8 2.9 0.0 0.0 0.0 0.0 0.0 0.0 0.0 0.0 0.0 0.0 0.0 0.0 0.0 0.0
0.0 0.0 0.0 0.0 0.0 0.0 0.0 0.0 0.0 0.0 0.0 0.0 0.0 0.0 0.0 0.0 0.0 0.0 9.3 18.3 18.0 0.0 0.0 0.0 0.0 0.0 0.0 0.0 0.0 0.0 0.0 0.0 0.0 0.0 0.0 0.0 0.0 0.0 0.0 2.2 1.8 2.7 1.5 2.1 12.5 1.9 1.8 2.8 3.4 4.8 5.7 7.9 7.9 2.5 1.9 0.0 2.6 6.7 0.0 0.0 2.6 2.1 1.8 2.1 4.9 8.6 8.6 9.8 12.5 10.4 4.8 13.6 13.3 7.8 1.4 0.0 2.8 0.9 0.0 0.0 0.0 0.0 0.0 0.0 0.0 0.0 0.0 0.0
0.0 0.0 0.0 0.0 0.0 0.0 0.0 0.0 0.0 0.0 0.0 0.0 0.0 0.0 0.0 0.0 0.0 0.0 9.1 18.0 1.6 0.0 0.0 0.0 0.0 0.0 0.0 0.0 0.0 0.0 0.0 0.0 0.0 0.0 0.0 0.0 0.0 0.0 2.6 1.1 0.4 1.0 0.0 0.1 8.6 2.9 0.0 0.0 0.0 0.0 4.8 7.1 1.6 0.0 0.0 0.0 5.4 0.0 0.0 0.0 0.3 0.0 0.0 0.0 4.3 5.3 7.4 11.4 14.2 12.4 6.6 13.4 12.7 4.2 5.3 3.6 1.6 0.0 0.0 0.0 0.0 0.0 0.0 0.0 0.0 0.0 0.0 0.0
0.0 0.0 0.0 0.0 0.0 0.0 0.0 0.0 0.0 0.0 0.0 0.0 0.0 0.0 0.0 0.0 0.0 9.0 10.2 17.9 0.0 9.8 0.0 0.0 0.0 0.0 0.0 0.0 0.0 0.0 0.0 0.0 0.0 0.0 0.0 0.0 0.0 0.0 0.0 0.0 0.0 1.3 4.6 2.6 2.9 0.0 0.0 0.0 0.0 0.0 1.9 0.0 0.0 0.0 0.0 0.0 0.0 0.0 0.0 0.4 7.8 6.0 4.6 1.5 3.9 5.3 9.8 15.1 12.5 6.1 6.7 9.8 15.3 6.4 4.9 6.5 1.1 0.0 0.0 0.0 0.0 0.0 0.0 0.0 0.0 0.0 0.0 0.0
0.0 0.0 0.0 0.0 0.0 0.0 0.0 0.0 0.0 0.0 0.0 0.0 0.0 0.0 0.0 0.0 8.2 10.7 17.3 11.1 0.0 1.4 0.0 1.4 0.0 0.0 0.0 2.0 3.1 0.0 0.0 0.0 0.0 0.0 0.0 0.0 0.0 0.0 0.0 0.5 0.0 8.2 10.5 9.4 7.2 2.8 0.0 0.1 0.6 0.0 0.0 0.0 0.0 0.0 0.0 0.0 0.0 0.0 5.4 8.7 9.3 11.3 11.5 10.9 11.9 9.3 15.3 15.7 7.8 4.0 6.9 7.6 15.6 9.8 5.3 0.0 0.0 0.0 0.0 0.0 0.0 0.0 0.0 0.0 0.0 0.0 0.0 0.0
0.0 0.0 0.0 0.0 0.0 0.0 0.0 0.0 0.0 0.0 0.0 0.0 0.0 0.0 0.0 8.6 10.2 12.4 12.8 0.0 11.8 6.5 3.9 3.1 0.0 1.1 0.0 0.8 3.1 1.1 1.2 0.6 0.0 0.0 1.4 5.3 7.2 8.1 8.8 10.4 9.0 12.1 12.2 9.4 8.3 0.0 5.1 5.2 1.8 0.0 0.0 0.0 0.0 2.8 2.4 0.4 0.0 2.9 6.3 6.6 12.5 13.8 14.0 19.1 14.2 17.1 16.2 16.1 10.6 8.8 7.2 12.1 12.0 3.8 0.0 0.0 0.0 0.0 0.0 0.0 0.0 0.0 0.0 0.0 0.0 0.0 0.0 0.0
0.0 0.0 0.0 0.0 0.0 0.0 0.0 0.0 0.0 0.0 0.0 0.0 0.0 0.0 7.1 8.7 16.3 13.2 12.3 8.0 13.0 1.2 3.1 0.0 0.7 0.8 3.5 5.8 4.0 0.6 0.0 4.8 0.0 0.0 0.0 4.4 6.6 8.3 5.8 3.9 3.0 5.3 13.1 7.1 9.5 7.4 4.7 0.0 0.0 0.0 0.0 0.0 0.0 5.4 11.1 7.6 5.5 5.3 8.2 11.5 13.4 16.2 16.8 19.1 16.5 15.8 15.2 12.8 7.6 9.9 9.6 12.5 6.6 1.2 0.0 0.0 0.0 0.0 0.0 0.0 0.0 0.0 0.0 0.0 0.0 0.0 0.0 0.0
0.0 0.0 0.0 0.0 0.0 0.0 0.0 0.0 0.0 0.0 0.0 0.0 0.0 0.0 5.9 10.0 13.1 0.0 8.1 8.3 4.4 0.0 0.8 3.0 1.7 2.6 5.6 7.5 3.4 2.5 7.1 4.3 2.8 0.3 1.8 6.1 10.6 10.9 9.6 4.6 1.0 2.8 5.7 8.9 12.6 10.1 13.3 11.8 5.3 0.0 4.4 0.0 0.0 0.0 0.2 2.8 7.8 4.6 1.7 5.2 10.1 12.5 15.8 20.2 16.8 20.8 18.9 15.5 12.8 12.3 12.8 15.5 12.9 11.2 2.1 0.0 0.0 0.0 0.0 0.0 0.0 0.0 0.0 0.0 0.0 0.0 0.0 0.0
0.0 0.0 0.0 0.0 0.0 0.0 0.0 0.0 0.0 0.0 0.0 0.0 0.0 4.1 8.2 13.0 13.8 13.5 12.6 12.3 6.9 2.6 1.8 0.0 3.8 7.3 8.4 8.3 5.6 3.6 0.7 8.1 1.9 2.1 5.1 7.8 11.9 10.8 10.1 6.5 2.1 0.0 3.4 10.3 7.6 8.8 9.0 8.4 0.0 0.0 0.0 0.0 0.0 0.0 0.0 0.0 4.8 3.7 1.9 1.3 10.2 11.7 9.1 14.6 13.7 13.6 15.1 15.6 17.6 14.0 13.4 12.5 9.2 1.9 0.0 0.0 0.0 0.0 0.0 0.0 0.0 0.0 0.0 0.0 0.0 0.0 0.0 0.0
0.0 0.0 0.0 0.0 0.0 0.0 0.0 0.0 0.0 0.0 0.0 0.0 4.4 5.7 12.2 9.9 13.0 7.2 7.3 0.0 1.3 3.3 5.2 4.6 7.2 10.7 11.7 10.7 12.3 7.6 0.0 3.1 4.2 4.8 8.6 6.0 4.2 8.7 6.9 5.7 4.9 1.9 5.2 9.8 6.1 12.2 6.8 12.0 0.0 0.0 0.0 0.0 0.0 0.0 0.0 0.0 12.7 6.6 3.4 11.9 6.0 0.0 2.4 13.6 13.9 12.4 13.7 15.0 15.9 13.5 13.3 8.9 1.6 0.0 0.0 0.0 0.0 0.0 0.0 0.0 0.0 0.0 0.0 0.0 0.0 0.0 0.0 0.0
0.0 0.0 0.0 0.0 0.0 0.0 0.0 0.0 0.0 0.0 0.0 0.0 4.5 9.0 8.0 3.9 0.0 2.9 0.0 0.0 0.0 0.0 9.4 12.5 11.1 10.3 11.8 12.2 13.3 5.3 3.3 2.3 8.1 6.2 11.8 6.0 9.1 6.6 5.4 3.7 0.0 0.0 0.0 1.6 7.1 0.0 11.3 8.9 0.0 0.0 0.6 0.0 0.0 0.0 0.0 0.0 0.0 5.5 11.4 5.1 0.0 0.0 0.2 9.7 16.2 14.6 17.1 18.5 16.9 13.0 13.5 12.7 12.9 13.8 3.2 0.0 0.0 0.0 0.0 0.0 0.0 0.0 0.0 0.0 0.0 0.0 0.0 0.0
0.0 0.0 0.0 0.0 0.0 0.0 0.0 0.0 0.0 0.0 0.0 3.4 5.7 0.0 2.7 4.3 0.0 0.0 0.0 0.0 0.0 4.8 9.9 13.1 12.0 5.4 11.3 11.1 8.9 4.1 3.2 9.5 7.7 7.3 12.2 7.2 12.0 0.0 2.4 4.9 0.0 0.0 0.0 0.0 3.3 3.7 2.4 12.5 3.3 0.0 0.0 0.0 0.0 0.0 0.0 0.0 0.0 2.6 4.6 0.0 6.8 14.4 14.3 10.8 13.7 18.2 18.7 19.0 18.2 13.8 13.2 12.9 10.8 8.8 4.4 4.3 4.1 2.1 0.0 0.0 0.0 0.0 0.0 0.0 0.0 0.0 0.0 0.0
0.0 0.0 0.0 0.0 0.0 0.0 0.0 0.0 0.0 0.0 0.0 4.4 7.7 6.5 0.0 0.8 0.0 0.0 0.0 0.0 0.0 3.6 6.3 7.6 11.3 8.3 6.8 12.7 7.3 6.1 7.3 10.6 6.7 10.4 12.2 8.5 11.3 1.0 0.5 1.2 2.8 0.0 0.0 0.0 2.6 2.4 2.1 12.5 8.5 0.0 0.0 0.0 0.0 1.7 10.6 6.3 0.0 0.0 0.0 3.1 0.8 7.8 11.3 13.9 13.3 12.5 14.0 18.8 19.8 17.2 13.6 14.7 6.6 7.5 3.7 2.6 0.3 0.0 0.0 1.1 0.0 0.0 0.0 0.0 0.0 0.0 0.0 0.0
0.0 0.0 0.0 0.0 0.0 0.0 0.0 0.0 0.0 0.0 5.1 6.4 6.5 8.3 0.0 0.0 0.0 0.0 0.0 0.0 0.0 4.8 4.9 6.2 5.8 10.9 10.6 7.4 5.5 6.6 7.4 7.8 10.1 10.3 9.1 10.1 7.6 0.0 1.7 0.0 2.6 0.0 0.0 0.0 0.0 0.0 7.3 3.4 13.4 4.6 0.0 0.0 8.6 6.6 7.6 5.9 8.6 7.3 7.5 8.4 7.6 8.3 5.5 6.9 10.3 12.8 14.4 17.4 18.2 18.0 17.7 12.2 2.2 0.0 0.0 0.0 0.0 0.0 0.0 0.0 0.0 0.0 0.0 0.0 0.0 0.0 0.0 0.0
0.0 0.0 0.0 0.0 0.0 0.0 0.0 0.0 0.0 5.6 6.5 7.7 4.3 1.8 1.8 0.0 0.0 0.0 0.0 0.0 0.0 0.0 0.0 2.2 6.0 8.4 7.1 8.8 6.8 5.1 12.3 12.3 11.0 12.5 10.3 8.4 7.8 10.3 2.4 0.0 0.0 0.0 0.0 0.0 0.0 0.3 7.1 7.5 12.4 5.7 6.4 7.4 4.0 0.0 0.0 0.0 1.3 5.4 6.8 8.2 6.1 10.0 13.1 14.7 15.1 8.2 10.3 13.8 16.1 17.3 16.7 10.2 0.0 0.0 0.0 0.0 0.0 0.0 0.0 0.0 0.0 0.0 0.0 0.0 0.0 0.0 0.0 0.0
0.0 3.0 0.0 0.0 0.0 0.0 0.0 0.0 0.0 0.0 8.5 7.1 3.8 0.0 0.0 0.0 0.0 0.0 0.0 0.0 0.0 0.0 0.0 0.0 3.6 4.3 8.3 6.7 6.3 8.9 10.4 11.6 12.1 11.0 9.4 10.5 3.1 3.1 0.9 0.0 0.0 0.0 0.0 3.8 2.0 0.0 0.0 5.7 8.6 11.5 6.9 5.1 0.0 0.0 0.0 0.0 0.0 0.6 4.8 7.5 6.1 7.0 8.8 12.7 16.3 13.8 12.0 11.1 7.9 11.6 15.4 11.5 0.0 0.0 0.0 0.0 0.0 0.0 0.0 0.0 0.0 0.0 0.0 0.0 0.0 0.0 0.0 0.0
0.0 0.0 0.0 0.0 0.0 0.0 0.0 7.2 0.0 6.8 6.4 0.0 0.0 0.0 0.0 0.0 0.0 0.0 0.0 0.0 0.0 0.0 0.2 2.1 0.2 2.3 4.4 3.7 5.5 8.3 8.9 13.0 8.5 10.6 10.3 8.6 5.4 0.0 0.0 0.0 0.0 0.0 0.0 1.4 0.0 0.0 0.0 6.1 9.2 6.9 3.3 0.2 0.0 1.0 0.0 0.0 0.0 5.4 5.4 5.3 7.3 8.6 7.3 9.4 9.8 9.6 13.3 12.4 14.3 13.8 16.0 11.0 0.0 0.0 0.0 0.0 0.0 0.0 0.0 0.0 0.0 0.0 0.0 0.0 0.0 0.0 0.0 0.0
0.0 0.0 0.0 0.0 0.0 0.0 0.0 6.4 5.9 7.9 5.9 0.0 0.0 0.7 0.0 0.0 0.0 0.0 0.3 0.0 0.0 1.3 0.5 1.4 0.7 0.0 0.9 0.0 1.4 7.1 4.4 9.4 4.0 5.8 8.3 7.3 6.9 0.0 0.0 0.0 0.0 0.0 0.0 1.3 2.5 0.0 5.1 4.4 8.7 11.3 9.0 7.6 9.2 7.6 7.5 5.2 3.6 7.6 7.4 6.4 6.5 5.9 6.8 6.9 7.3 7.7 12.9 11.3 11.6 14.4 17.1 11.4 1.7 0.0 0.0 0.0 0.0 0.0 0.0 0.0 0.0 0.0 0.0 0.0 0.0 0.0 0.0 0.0
0.0 0.0 0.0 0.0 0.0 0.0 0.0 0.0 7.3 8.7 8.6 7.6 8.6 4.1 3.5 0.6 0.0 0.0 0.0 1.0 0.0 0.0 1.2 2.6 0.0 0.0 0.6 0.0 2.8 3.0 2.1 4.1 8.4 5.7 4.1 7.4 4.1 0.0 0.0 0.0 0.0 0.0 0.0 0.0 0.0 0.0 1.3 3.9 7.9 13.0 14.7 15.9 15.4 14.5 12.8 9.6 6.4 6.6 7.4 7.1 6.6 7.4 7.6 9.4 12.9 11.6 14.2 10.4 9.3 13.6 13.3 3.5 0.0 0.0 0.0 0.0 0.0 0.0 0.0 0.0 0.0 0.0 0.0 0.0 0.0 0.0 0.0 0.0
0.0 3.5 0.0 0.0 0.0 0.0 0.0 0.0 0.0 5.8 8.9 8.7 9.0 5.7 6.6 6.5 0.0 0.0 0.0 0.0 0.0 0.0 0.0 0.0 0.0 0.0 1.8 3.4 8.7 8.4 6.9 4.1 6.6 9.8 7.8 9.6 9.0 2.8 0.0 0.0 0.0 0.0 0.0 0.0 0.0 0.0 2.9 0.1 4.4 7.8 10.9 12.4 9.9 7.3 2.0 1.6 6.4 8.5 6.2 7.0 6.1 5.4 5.8 7.4 8.6 12.3 13.6 10.2 12.2 8.9 8.1 5.8 3.7 0.0 0.0 0.0 0.0 0.0 0.0 0.0 0.0 0.0 0.0 0.0 0.0 0.0 0.0 0.0
0.0 5.0 5.1 5.6 0.0 0.0 0.0 0.0 0.0 0.0 7.1 0.0 9.0 4.9 9.0 8.3 6.6 1.8 0.0 0.4 0.0 0.0 0.0 0.0 0.1 4.0 6.4 6.3 12.3 11.8 9.1 8.9 5.9 7.5 8.4 8.3 6.3 4.4 0.0 0.0 0.0 0.0 0.0 0.0 0.0 0.0 1.6 6.1 3.6 4.9 6.1 5.9 4.1 4.6 1.0 0.3 7.0 6.8 7.6 6.7 5.4 6.3 6.4 7.9 10.9 12.4 6.4 11.7 13.9 6.3 4.7 8.9 5.5 0.2 0.0 0.0 0.0 0.0 0.0 0.0 0.0 0.0 0.0 0.0 0.0 0.0 0.0 0.0
4.8 0.0 0.0 0.0 3.6 6.9 7.2 6.5 0.0 0.7 0.0 0.0 6.9 0.0 6.9 9.5 9.5 10.8 0.0 0.0 0.0 0.0 2.4 2.6 3.4 1.6 4.1 6.3 8.1 13.0 12.1 8.3 8.3 12.0 7.3 6.6 7.2 0.4 0.0 0.0 0.0 0.0 0.0 0.0 0.0 0.0 3.3 7.9 2.4 3.1 5.1 2.3 1.1 0.9 0.0 0.4 4.9 7.0 7.4 7.2 7.4 6.6 6.5 9.6 8.6 6.8 8.1 12.1 12.8 6.8 5.8 8.5 4.8 0.5 0.0 0.0 0.0 0.0 0.0 0.0 0.0 0.0 0.0 0.0 0.0 0.0 0.0 0.0
0.0 0.0 0.0 0.0 4.9 0.0 0.0 0.0 0.0 0.0 7.1 0.0 7.5 6.8 8.6 9.4 10.1 5.3 7.4 4.1 3.4 4.2 0.0 9.8 5.4 2.3 3.1 4.1 7.6 12.8 12.9 12.3 11.5 8.8 6.1 7.1 4.9 5.3 7.6 1.9 0.2 0.0 0.0 0.0 0.0 0.0 0.7 7.6 2.2 2.2 5.8 4.3 1.4 0.0 0.0 1.2 4.3 6.9 7.7 6.4 6.3 6.7 7.4 7.3 7.4 6.6 7.8 8.8 6.8 7.0 6.7 6.9 2.9 0.4 0.0 0.0 0.0 0.0 0.0 0.0 0.0 0.0 0.0 0.0 0.0 0.0 0.0 0.0
0.0 0.0 0.0 0.0 0.0 0.0 0.0 0.0 0.0 0.0 8.6 0.0 9.4 6.3 6.1 8.7 8.7 5.8 0.0 5.0 12.2 6.0 0.0 5.6 3.9 2.4 2.9 4.9 7.6 12.4 8.5 6.5 6.9 8.9 5.6 5.8 4.0 3.6 6.4 4.7 2.1 0.0 0.0 0.0 0.0 0.0 1.4 6.3 0.6 3.4 7.1 5.5 0.7 0.0 0.0 1.4 4.8 7.9 7.1 5.1 5.6 5.9 5.7 5.9 6.5 6.0 6.3 6.9 5.6 6.1 6.8 6.4 0.0 0.0 0.0 0.0 0.0 0.0 0.0 0.0 0.0 0.0 0.0 0.0 0.0 0.0 0.0 0.0
0.0 0.0 0.0 0.0 8.4 0.0 0.0 0.0 0.7 8.5 8.7 8.8 8.8 8.1 5.3 8.9 7.3 6.5 7.5 0.0 3.8 3.9 3.1 5.4 2.6 4.1 3.4 4.9 7.2 6.8 2.8 3.5 3.9 2.9 0.3 1.8 6.8 1.9 2.6 2.9 0.0 3.4 0.1 0.7 0.0 0.1 0.8 6.3 1.6 5.2 10.0 8.0 0.5 1.2 2.1 2.0 4.9 8.4 6.2 6.1 6.9 7.6 9.1 7.3 8.5 6.6 9.3 9.7 8.1 6.1 7.1 7.0 1.2 0.0 0.0 0.0 0.0 0.0 0.0 0.0 0.0 0.0 0.0 0.0 0.0 0.0 0.0 0.0
0.0 0.0 0.0 0.0 8.5 0.0 7.4 0.0 1.5 8.6 8.5 8.1 5.3 6.9 6.7 7.2 0.0 0.9 10.9 0.0 0.0 0.0 0.0 0.0 0.0 6.7 5.0 5.8 5.4 1.8 0.0 0.0 0.0 0.0 0.0 0.0 0.0 0.0 0.0 0.0 0.0 3.1 5.0 4.1 0.1 4.9 4.1 7.4 9.3 8.1 11.8 9.8 1.9 2.3 3.5 6.1 7.2 9.1 8.9 7.4 6.6 6.3 6.3 5.6 4.5 5.1 6.6 7.0 8.9 9.8 8.9 2.2 0.0 0.0 0.0 0.0 0.0 0.0 0.0 0.0 0.0 0.0 0.0 0.0 0.0 0.0 0.0 0.0